| time (UTC) | temp C | wind direction | speed KPH | gust KPH | rain 1hr cm | rain 24hr cm | rain mn cm | humidity % | barometer mb |
| 20260504040008 | 10 | 188 | 0.0 | 0.0 | 0.00 | 0.00 | 0.00 | 71 | 1017.0 |
| 20260504035503 | 11 | 188 | 0.0 | 0.0 | 0.00 | 0.00 | 0.00 | 70 | 1016.9 |
| 20260504035003 | 11 | 188 | 0.0 | 0.0 | 0.00 | 0.00 | 0.00 | 71 | 1017.0 |
| 20260504034503 | 11 | 188 | 0.0 | 0.0 | 0.00 | 0.00 | 0.00 | 71 | 1017.0 |
| 20260504033503 | 11 | 188 | 0.0 | 1.6 | 0.00 | 0.00 | 0.00 | 69 | 1016.8 |
| 20260504033003 | 11 | 188 | 0.0 | 1.6 | 0.00 | 0.00 | 0.00 | 69 | 1016.8 |
| 20260504032504 | 11 | 188 | 0.0 | 1.6 | 0.00 | 0.00 | 0.00 | 68 | 1016.7 |
| 20260504032005 | 11 | 184 | 0.0 | 0.0 | 0.00 | 0.00 | 0.00 | 68 | 1016.7 |
| 20260504031503 | 11 | 184 | 0.0 | 0.0 | 0.00 | 0.00 | 0.00 | 68 | 1016.8 |
| 20260504031003 | 11 | 184 | 0.0 | 3.2 | 0.00 | 0.00 | 0.00 | 68 | 1016.7 |
| 20260504030503 | 11 | 184 | 0.0 | 3.2 | 0.00 | 0.00 | 0.00 | 68 | 1016.6 |
| 20260504030007 | 11 | 179 | 0.0 | 1.6 | 0.00 | 0.00 | 0.00 | 68 | 1016.6 |
| 20260504025501 | 11 | 179 | 0.0 | 1.6 | 0.00 | 0.00 | 0.00 | 69 | 1016.7 |
| 20260504025001 | 11 | 179 | 0.0 | 1.6 | 0.00 | 0.00 | 0.00 | 69 | 1016.7 |
| 20260504024502 | 11 | 179 | 0.0 | 0.0 | 0.00 | 0.00 | 0.00 | 70 | 1016.8 |
| 20260504023501 | 11 | 179 | 0.0 | 1.6 | 0.00 | 0.00 | 0.00 | 69 | 1016.8 |
| 20260504023002 | 11 | 179 | 0.0 | 1.6 | 0.00 | 0.00 | 0.00 | 69 | 1016.6 |
| 20260504022504 | 11 | 179 | 0.0 | 3.2 | 0.00 | 0.00 | 0.00 | 69 | 1016.5 |
| 20260504021502 | 11 | 179 | 0.0 | 1.6 | 0.00 | 0.00 | 0.00 | 69 | 1016.5 |
| 20260504021002 | 11 | 179 | 0.0 | 1.6 | 0.00 | 0.00 | 0.00 | 69 | 1016.5 |
| 20260504020504 | 12 | 179 | 0.0 | 0.0 | 0.00 | 0.00 | 0.00 | 69 | 1016.5 |
| 20260504020007 | 12 | 179 | 0.0 | 0.0 | 0.00 | 0.00 | 0.00 | 68 | 1016.4 |
| 20260504015501 | 12 | 179 | 0.0 | 0.0 | 0.00 | 0.00 | 0.00 | 68 | 1016.3 |
| 20260504015003 | 12 | 179 | 0.0 | 0.0 | 0.00 | 0.00 | 0.00 | 68 | 1016.2 |
| 20260504014501 | 12 | 179 | 0.0 | 0.0 | 0.00 | 0.00 | 0.00 | 68 | 1016.2 |
| 20260504014003 | 12 | 179 | 0.0 | 0.0 | 0.00 | 0.00 | 0.00 | 67 | 1016.2 |
| 20260504013501 | 12 | 179 | 0.0 | 0.0 | 0.00 | 0.00 | 0.00 | 66 | 1016.1 |
| 20260504013001 | 13 | 179 | 0.0 | 0.0 | 0.00 | 0.00 | 0.00 | 65 | 1016.1 |
| 20260504012501 | 13 | 179 | 0.0 | 0.0 | 0.00 | 0.00 | 0.00 | 64 | 1016.1 |
| 20260504012003 | 13 | 179 | 0.0 | 0.0 | 0.00 | 0.00 | 0.00 | 64 | 1016.0 |
| 20260504011501 | 13 | 179 | 0.0 | 0.0 | 0.00 | 0.00 | 0.00 | 63 | 1016.1 |
| 20260504010501 | 14 | 179 | 0.0 | 0.0 | 0.00 | 0.00 | 0.00 | 62 | 1016.1 |
| 20260504010004 | 14 | 179 | 0.0 | 0.0 | 0.00 | 0.00 | 0.00 | 61 | 1016.0 |
| 20260504005503 | 14 | 179 | 0.0 | 0.0 | 0.00 | 0.00 | 0.00 | 61 | 1016.0 |
| 20260504005001 | 15 | 179 | 0.0 | 0.0 | 0.00 | 0.00 | 0.00 | 60 | 1015.9 |
| 20260504004501 | 15 | 179 | 0.0 | 0.0 | 0.00 | 0.00 | 0.00 | 59 | 1016.0 |
| 20260504004001 | 15 | 179 | 0.0 | 0.0 | 0.00 | 0.00 | 0.00 | 58 | 1015.8 |
| 20260504003503 | 15 | 179 | 0.0 | 0.0 | 0.00 | 0.00 | 0.00 | 57 | 1015.7 |
| 20260504003001 | 16 | 179 | 0.0 | 0.0 | 0.00 | 0.00 | 0.00 | 56 | 1015.7 |
| 20260504001001 | 16 | 179 | 0.0 | 0.0 | 0.00 | 0.00 | 0.00 | 52 | 1015.5 |
| 20260504000501 | 17 | 179 | 0.0 | 0.0 | 0.00 | 0.00 | 0.00 | 52 | 1015.5 |
| 20260503235503 | 17 | 179 | 1.6 | 3.2 | 0.00 | 0.00 | 0.00 | 51 | 1015.4 |
| 20260503235001 | 17 | 208 | 0.0 | 3.2 | 0.00 | 0.00 | 0.00 | 49 | 1015.4 |
| 20260503234501 | 17 | 237 | 0.0 | 3.2 | 0.00 | 0.00 | 0.00 | 49 | 1015.4 |
| 20260503234001 | 17 | 284 | 0.0 | 3.2 | 0.00 | 0.00 | 0.00 | 48 | 1015.3 |
| 20260503233503 | 18 | 269 | 1.6 | 6.4 | 0.00 | 0.00 | 0.00 | 47 | 1015.4 |
| 20260503233003 | 18 | 274 | 1.6 | 6.4 | 0.00 | 0.00 | 0.00 | 47 | 1015.4 |
| 20260503231501 | 18 | 169 | 1.6 | 6.4 | 0.00 | 0.00 | 0.00 | 46 | 1015.4 |
| 20260503231003 | 18 | 281 | 1.6 | 6.4 | 0.00 | 0.00 | 0.00 | 45 | 1015.4 |
| 20260503230501 | 18 | 281 | 3.2 | 11.3 | 0.00 | 0.00 | 0.00 | 45 | 1015.5 |
| 20260503230004 | 18 | 261 | 1.6 | 11.3 | 0.00 | 0.00 | 0.00 | 44 | 1015.6 |
| 20260503225501 | 18 | 197 | 1.6 | 6.4 | 0.00 | 0.00 | 0.00 | 45 | 1015.6 |
| 20260503225004 | 18 | 144 | 1.6 | 4.8 | 0.00 | 0.00 | 0.00 | 45 | 1015.6 |
| 20260503224503 | 18 | 264 | 1.6 | 4.8 | 0.00 | 0.00 | 0.00 | 46 | 1015.7 |
| 20260503224001 | 18 | 275 | 3.2 | 11.3 | 0.00 | 0.00 | 0.00 | 45 | 1015.6 |
| 20260503222505 | 19 | 267 | 1.6 | 8.0 | 0.00 | 0.00 | 0.00 | 46 | 1015.7 |
| 20260503222001 | 19 | 263 | 1.6 | 8.0 | 0.00 | 0.00 | 0.00 | 44 | 1015.8 |
| 20260503221503 | 19 | 275 | 1.6 | 6.4 | 0.00 | 0.00 | 0.00 | 44 | 1015.7 |
| 20260503220501 | 19 | 311 | 3.2 | 8.0 | 0.00 | 0.00 | 0.00 | 45 | 1015.9 |
| 20260503220005 | 19 | 292 | 4.8 | 16.1 | 0.00 | 0.00 | 0.00 | 45 | 1015.9 |
| 20260503215503 | 19 | 309 | 3.2 | 16.1 | 0.00 | 0.00 | 0.00 | 44 | 1016.0 |
| 20260503215002 | 19 | 247 | 1.6 | 4.8 | 0.00 | 0.00 | 0.00 | 46 | 1015.9 |
| 20260503214501 | 19 | 323 | 1.6 | 6.4 | 0.00 | 0.00 | 0.00 | 45 | 1015.9 |
| 20260503214001 | 19 | 266 | 1.6 | 11.3 | 0.00 | 0.00 | 0.00 | 43 | 1015.9 |
| 20260503213001 | 19 | 310 | 3.2 | 17.7 | 0.00 | 0.00 | 0.00 | 44 | 1016.1 |
| 20260503212501 | 19 | 163 | 4.8 | 16.1 | 0.00 | 0.00 | 0.00 | 44 | 1016.1 |
| 20260503212002 | 19 | 295 | 3.2 | 14.5 | 0.00 | 0.00 | 0.00 | 44 | 1016.1 |
| 20260503211001 | 19 | 256 | 4.8 | 12.9 | 0.00 | 0.00 | 0.00 | 43 | 1016.3 |
| 20260503210503 | 19 | 286 | 4.8 | 11.3 | 0.00 | 0.00 | 0.00 | 43 | 1016.3 |
| 20260503210006 | 19 | 167 | 4.8 | 14.5 | 0.00 | 0.00 | 0.00 | 45 | 1016.3 |
| 20260503205002 | 19 | 194 | 3.2 | 12.9 | 0.00 | 0.00 | 0.00 | 47 | 1016.4 |
| 20260503204501 | 19 | 142 | 3.2 | 8.0 | 0.00 | 0.00 | 0.00 | 45 | 1016.4 |
| 20260503204004 | 19 | 244 | 3.2 | 12.9 | 0.00 | 0.00 | 0.00 | 44 | 1016.5 |
| 20260503203502 | 20 | 27 | 1.6 | 12.9 | 0.00 | 0.00 | 0.00 | 43 | 1016.6 |
| 20260503203002 | 20 | 160 | 3.2 | 12.9 | 0.00 | 0.00 | 0.00 | 47 | 1016.7 |
| 20260503202502 | 20 | 35 | 4.8 | 12.9 | 0.00 | 0.00 | 0.00 | 45 | 1016.8 |
| 20260503202004 | 20 | 5 | 4.8 | 16.1 | 0.00 | 0.00 | 0.00 | 43 | 1016.8 |
| 20260503201502 | 20 | 298 | 4.8 | 16.1 | 0.00 | 0.00 | 0.00 | 44 | 1016.9 |
| 20260503201002 | 20 | 255 | 3.2 | 14.5 | 0.00 | 0.00 | 0.00 | 43 | 1017.0 |
| 20260503200502 | 20 | 121 | 3.2 | 12.9 | 0.00 | 0.00 | 0.00 | 43 | 1017.0 |
| 20260503200006 | 20 | 292 | 3.2 | 12.9 | 0.00 | 0.00 | 0.00 | 42 | 1017.3 |
| 20260503195502 | 20 | 249 | 4.8 | 12.9 | 0.00 | 0.00 | 0.00 | 40 | 1017.4 |
| 20260503195002 | 20 | 291 | 6.4 | 17.7 | 0.00 | 0.00 | 0.00 | 42 | 1017.6 |
| 20260503194502 | 20 | 212 | 4.8 | 17.7 | 0.00 | 0.00 | 0.00 | 44 | 1017.6 |
| 20260503194004 | 20 | 286 | 4.8 | 16.1 | 0.00 | 0.00 | 0.00 | 42 | 1017.5 |
| 20260503193502 | 20 | 282 | 3.2 | 16.1 | 0.00 | 0.00 | 0.00 | 43 | 1017.6 |
| 20260503193002 | 20 | 298 | 3.2 | 11.3 | 0.00 | 0.00 | 0.00 | 42 | 1017.7 |
| 20260503192502 | 20 | 286 | 4.8 | 9.7 | 0.00 | 0.00 | 0.00 | 42 | 1017.8 |
| 20260503191502 | 20 | 297 | 4.8 | 12.9 | 0.00 | 0.00 | 0.00 | 43 | 1018.0 |
| 20260503191003 | 20 | 338 | 3.2 | 12.9 | 0.00 | 0.00 | 0.00 | 43 | 1018.2 |
| 20260503190004 | 21 | 238 | 4.8 | 14.5 | 0.00 | 0.00 | 0.00 | 41 | 1018.2 |
| 20260503185502 | 21 | 294 | 4.8 | 14.5 | 0.00 | 0.00 | 0.00 | 40 | 1018.3 |
| 20260503184502 | 20 | 298 | 3.2 | 14.5 | 0.00 | 0.00 | 0.00 | 40 | 1018.4 |
| 20260503183503 | 20 | 293 | 3.2 | 14.5 | 0.00 | 0.00 | 0.00 | 45 | 1018.4 |
| 20260503183002 | 20 | 40 | 3.2 | 12.9 | 0.00 | 0.00 | 0.00 | 42 | 1018.4 |
| 20260503182504 | 21 | 329 | 3.2 | 12.9 | 0.00 | 0.00 | 0.00 | 39 | 1018.4 |
| 20260503182002 | 21 | 277 | 3.2 | 8.0 | 0.00 | 0.00 | 0.00 | 41 | 1018.4 |
| 20260503181502 | 21 | 203 | 3.2 | 14.5 | 0.00 | 0.00 | 0.00 | 44 | 1018.5 |
| 20260503181002 | 20 | 277 | 4.8 | 14.5 | 0.00 | 0.00 | 0.00 | 40 | 1018.4 |
| 20260503180504 | 20 | 345 | 3.2 | 11.3 | 0.00 | 0.00 | 0.00 | 43 | 1018.5 |
| 20260503180003 | 20 | 227 | 3.2 | 11.3 | 0.00 | 0.00 | 0.00 | 43 | 1018.7 |
| 20260503175501 | 20 | 218 | 1.6 | 8.0 | 0.00 | 0.00 | 0.00 | 39 | 1018.6 |
| 20260503175002 | 19 | 288 | 3.2 | 11.3 | 0.00 | 0.00 | 0.00 | 46 | 1018.6 |
| 20260503174502 | 20 | 286 | 3.2 | 11.3 | 0.00 | 0.00 | 0.00 | 42 | 1018.7 |
| 20260503174001 | 20 | 16 | 3.2 | 11.3 | 0.00 | 0.00 | 0.00 | 46 | 1018.6 |
| 20260503173501 | 19 | 184 | 3.2 | 14.5 | 0.00 | 0.00 | 0.00 | 44 | 1018.7 |
| 20260503173004 | 20 | 320 | 3.2 | 14.5 | 0.00 | 0.00 | 0.00 | 44 | 1018.7 |
| 20260503172001 | 19 | 119 | 3.2 | 9.7 | 0.00 | 0.00 | 0.00 | 44 | 1018.9 |
| 20260503171003 | 18 | 303 | 3.2 | 12.9 | 0.00 | 0.00 | 0.00 | 44 | 1019.1 |
| 20260503170501 | 19 | 281 | 3.2 | 14.5 | 0.00 | 0.00 | 0.00 | 45 | 1019.2 |
| 20260503151001 | 16 | 265 | 1.6 | 6.4 | 0.00 | 0.00 | 0.00 | 54 | 1020.3 |
| 20260503150503 | 16 | 244 | 1.6 | 4.8 | 0.00 | 0.00 | 0.00 | 57 | 1020.2 |
| 20260503130501 | 7 | 96 | 1.6 | 4.8 | 0.00 | 0.00 | 0.00 | 95 | 1019.9 |
| 20260503110503 | 2 | 232 | 0.0 | 0.0 | 0.00 | 0.00 | 0.00 | 93 | 1019.0 |
| 20260503090502 | 3 | 232 | 0.0 | 0.0 | 0.00 | 0.00 | 0.00 | 93 | 1017.6 |
| 20260503081500 | 5 | 232 | 0.0 | 0.0 | 0.00 | 0.00 | 0.00 | 93 | 1017.0 |
| 20260503081000 | 5 | 232 | 0.0 | 0.0 | 0.00 | 0.00 | 0.00 | 93 | 1017.1 |
| 20260503080500 | 5 | 232 | 0.0 | 0.0 | 0.00 | 0.00 | 0.00 | 92 | 1016.9 |
| 20260503072501 | 5 | 232 | 0.0 | 1.6 | 0.00 | 0.00 | 0.00 | 93 | 1016.7 |
| 20260503071959 | 5 | 232 | 0.0 | 3.2 | 0.00 | 0.00 | 0.00 | 93 | 1016.6 |
| 20260503071500 | 5 | 225 | 0.0 | 0.0 | 0.00 | 0.00 | 0.00 | 92 | 1016.6 |
| 20260503071000 | 5 | 225 | 0.0 | 0.0 | 0.00 | 0.00 | 0.00 | 92 | 1016.5 |
| 20260503070501 | 5 | 225 | 0.0 | 0.0 | 0.00 | 0.00 | 0.00 | 92 | 1016.4 |
| 20260503055000 | 6 | 225 | 0.0 | 0.0 | 0.00 | 0.00 | 0.00 | 93 | 1016.2 |
| 20260503054502 | 6 | 225 | 0.0 | 1.6 | 0.00 | 0.00 | 0.00 | 92 | 1016.2 |
| 20260503053459 | 6 | 225 | 0.0 | 3.2 | 0.00 | 0.00 | 0.00 | 93 | 1016.3 |
| 20260503052501 | 6 | 225 | 0.0 | 0.0 | 0.00 | 0.00 | 0.00 | 91 | 1016.2 |
| 20260503052000 | 7 | 225 | 0.0 | 0.0 | 0.00 | 0.00 | 0.00 | 92 | 1016.3 |
| 20260503051500 | 7 | 225 | 0.0 | 0.0 | 0.00 | 0.00 | 0.00 | 92 | 1016.3 |
| 20260503051001 | 7 | 225 | 0.0 | 0.0 | 0.00 | 0.00 | 0.00 | 90 | 1016.3 |
| 20260503045500 | 7 | 225 | 0.0 | 0.0 | 0.00 | 0.00 | 0.00 | 90 | 1016.3 |
| 20260503045000 | 7 | 225 | 0.0 | 0.0 | 0.00 | 0.00 | 0.00 | 90 | 1016.2 |
| 20260503044500 | 7 | 225 | 0.0 | 0.0 | 0.00 | 0.00 | 0.00 | 90 | 1016.1 |
| 20260503044002 | 7 | 225 | 0.0 | 0.0 | 0.00 | 0.00 | 0.00 | 89 | 1016.1 |
| 20260503043500 | 7 | 225 | 0.0 | 0.0 | 0.00 | 0.00 | 0.00 | 90 | 1016.2 |
| 20260503042500 | 7 | 225 | 0.0 | 0.0 | 0.00 | 0.00 | 0.00 | 89 | 1016.4 |
| 20260503042000 | 7 | 225 | 0.0 | 0.0 | 0.00 | 0.00 | 0.00 | 89 | 1016.4 |
| 20260503041500 | 7 | 225 | 0.0 | 0.0 | 0.00 | 0.00 | 0.00 | 89 | 1016.4 |
| 20260503041002 | 7 | 225 | 0.0 | 0.0 | 0.00 | 0.00 | 0.00 | 88 | 1016.3 |
| 20260503040500 | 7 | 225 | 0.0 | 0.0 | 0.00 | 0.00 | 0.00 | 89 | 1016.3 |